Regional Weather Roundup
Issued by NWS Green Bay, WI

Home | Current Version | Previous Version | Text Only | Print | Product List | Glossary On
Versions: 1 2 3 4 5 6 7 8 9 10 11 12 13 14 15 16 17 18 19 20 21 22 23 24 25 26 27 28 29 30 31 32 33 34 35 36 37 38 39 40 41 42 43 44 45 46 47 48 49 50
000
ASUS43 KGRB 310510
RWRGRB

NORTH-CENTRAL AND NORTHEAST WISCONSIN REGIONAL WEATHER ROUNDUP
NATIONAL WEATHER SERVICE GREEN BAY WI
1200 AM CDT FRI OCT 31 2014

WIZ005-009-010>012-018-019-310600-
NORTH CENTRAL WISCONSIN

CITY           SKY/WX    TMP DP  RH WIND       PRES   REMARKS
IRONWOOD       CLOUDY    30  27  86 N13G25    30.19R
MANITOWISH WTR LGT SNOW  30  29  97 N10G21    30.12R
ARBOR VITAE    SNOW      32  30  94 N21G26    30.10R VSB 1/2
EAGLE RIVER    LGT SNOW  32  31  99 N15       30.06R VSB 3/4
LAND O LAKES   LGT SNOW  32  31  96 N15G23    30.07R VSB 3/4
RHINELANDER    LGT SNOW  32  30  92 NW9G21    30.07R FOG
PHILLIPS       LGT SNOW  29  28  93 N16G24    30.15R
ANTIGO         LGT SNOW  32  31  94 NW13      30.05R
TOMAHAWK       CLOUDY    31  28  86 NW13G24   30.09R
MERRILL        CLOUDY    33  28  79 NW13G25   30.08S
$$

WIZ013-073-310600-
NORTHEAST WISCONSIN

CITY           SKY/WX    TMP DP  RH WIND       PRES   REMARKS
IRON MOUNTAIN  CLOUDY    36  31  82 N12       30.00R
MARINETTE      MOCLDY    39  30  70 N14G22    29.98S
OCONTO         CLOUDY    40  31  70 NW9G20    30.00S
$$

WIZ017-030-035>037-045-310600-
CENTRAL WISCONSIN

CITY           SKY/WX    TMP DP  RH WIND       PRES   REMARKS
MEDFORD        CLOUDY    31  26  80 NW16G30   30.13R
WAUSAU         CLOUDY    35  27  72 NW15G26   30.08R
MOSINEE        CLOUDY    34  30  86 NW17G24   30.09R
MARSHFIELD     CLOUDY    34  28  79 NW20G28   30.13R
WISC RAPIDS    CLOUDY    36  30  79 NW17G28   30.12R
STEVENS POINT  MIX PCPN  35  29  79 NW14G22   30.09R
WAUPACA        PTCLDY    41  31  67 NW16G22   30.06R
SHAWANO        MOCLDY    40  32  71 NW12G18   30.04R
CLINTONVILLE   CLOUDY    39  32  75 NW15      30.04R
$$

WIZ038-039-048-051-310600-
FOX VALLEY

CITY           SKY/WX    TMP DP  RH WIND       PRES   REMARKS
NWS GREEN BAY  CLOUDY    42  32  67 NW17G29   30.01F
APPLETON       CLOUDY    39  30  70 NW9       30.03S
OSHKOSH        MOCLDY    42  33  70 NW12      30.03S
FOND DU LAC    CLOUDY    43  32  65 NW12      30.03F
$$

WIZ022-050-052-310600-
EAST CENTRAL WISCONSIN

CITY           SKY/WX    TMP DP  RH WIND       PRES   REMARKS
STURGEON BAY   CLOUDY    43  30  61 NW18G24   29.98S
MANITOWOC      CLOUDY    44  33  65 NW16G22   30.00S
SHEBOYGAN      CLOUDY    44  33  65 NW12      30.00F
$$

LMZ563-521-522-541>543-310600-
LAKESHORE

STATION/POSITION TIME  TEMP    WIND        PRES    VSBY  WAVE
                       AIR SEA DIR/SP/G                  HT/PER
                 (UTC) (F)     (DEG/KT/KT) (MB)    (MI)  (FT/S)
SHEBOYGAN LKSHOR 0500   45 50  300/  9/ 11 1016.6F
KEWAUNEE LKSHORE 0500   44     310/ 11/ 15 1014.5S
NORTHPORT PIER   0500   43     320/ 21/ 25 1014.2F
N MID LAKE BUOY  0500   44 51  310/ 17/ 21 1013.8F         3/ 4
CHAMBERS ISLAND  0500   42     310/ 15/ 20 1015.2S
MENOMINEE LKSHOR 0500   42     300/ 12/ 18 1015.9R
$$



USA.gov is the U.S. government's official web portal to all federal, state and local government web resources and services.